Other Public Products
Issued by NWS Grand Forks, ND

Home | Current Version | Previous Version | Graphics & Text | Print | Product List | Glossary On
Versions: 1 2 3 4 5 6 7 8 9 10 11 12 13 14 15 16 17 18 19 20 21 22 23 24 25 26 27 28 29 30 31 32 33 34 35 36 37 38 39 40 41 42 43 44 45 46 47 48 49 50
000
FPUS83 KFGF 170710
OPUFGF
PRAIRIE TO PINES WEATHER ROUNDUP
NATIONAL WEATHER SERVICE EASTERN NORTH DAKOTA/GRAND FORKS ND
200 AM CDT THU AUG 17 2017

 **SATELLITE DATA USED TO AUGMENT SKY COVER AT AUTOMATED STATIONS**
 *****  WEATHER ACROSS EASTERN NORTH DAKOTA  *****

CITY           SKY/WX    TMP DP  RH WIND       PRES   REMARKS
GRAND FORKS    FAIR      59  59 100 NW8       29.82S
GRAND FORKS AF FAIR      59  59 100 N5        29.82F FOG
GRAND CITY NWS NOT AVBL
BUXTON           N/A     61  60  99 NW8         N/A
DEVILS LAKE    NOT AVBL
FARGO          CLOUDY    64  63  96 N15       29.77F
WAHPETON ARPT  CLOUDY    63  61  94 N15       29.75S
$$

 *****  WEATHER ACROSS CENTRAL AND WESTERN NORTH DAKOTA  *****

CITY           SKY/WX    TMP DP  RH WIND       PRES   REMARKS
JAMESTOWN      FAIR      56  54  93 NW5       29.85F
BISMARCK       FAIR      56  54  93 CALM      29.92R
MINOT          FAIR      61  53  75 SE3       29.88R
MINOT AFB      CLOUDY    57  53  86 S3        29.87R
GARRISON         N/A     57  56  96 E3        29.91R
WILLISTON      FAIR      71  55  56 NE5       29.87R
DICKINSON      FAIR      58  53  84 SE8       29.91S
HETTINGER      FAIR      58  50  75 SE7       29.95F
$$

 *****  OTHER OBSERVATIONS NORTHEAST NORTH DAKOTA  *****

CITY           SKY/WX    TMP DP  RH WIND       PRES   REMARKS
WALHALLA       FOG       55  55 100 CALM      29.86S VSB 1/4
LANGDON        FOG       52  52 100 CALM      29.89S VSB 1/4
CAVALIER       FOG       55  55 100 CALM      29.85S VSB<1/4
GRAFTON        FAIR      59  59 100 NW6       29.85F
CANDO          FAIR      54  54 100 NW3       29.91R
FORT TOTTEN      N/A     59  59 100 CALM      29.95S
ROLLA          FAIR      52  52 100 CALM      29.90F
RUGBY          FAIR      52  52 100 CALM      29.88S
 ***** THE ABOVE OBSERVATIONS ARE NON NWS ARE NOT QUALITY
        CONTROLLED AND MAY MIS-REPORT RAIN FOR SNOW...
$$

 *****  OTHER OBSERVATIONS SOUTHEAST NORTH DAKOTA *****

CITY           SKY/WX    TMP DP  RH WIND       PRES   REMARKS
COOPERSTOWN    FAIR      59  59 100 N7        29.85F FOG
VALLEY CITY      N/A     57  57 100 NW8       29.85S FOG
OAKES          NOT AVBL
GWINNER        MOSUNNY   61  61 100 N8        29.80F
SHEYENNE NWR     N/A     63  63 100 N7        29.95S
BUFFALO          N/A     43  58 100 NW10        N/A
WYNDMERE       NOT AVBL
 ***** THE ABOVE OBSERVATIONS ARE NON NWS ARE NOT QUALITY
       CONTROLLED AND MAY MIS-REPORT RAIN FOR SNOW...
$$

  *****  WEATHER ACROSS NORTHERN MINNESOTA  *****

CITY           SKY/WX    TMP DP  RH WIND       PRES   REMARKS
FLAG ISLAND    CLOUDY    63  57  82 NE3       29.83F
WARROAD        CLOUDY    63  59  88 E8        29.83F
ROSEAU         CLOUDY    63  57  82 NE6       29.82F
HALLOCK        FAIR      57  57 100 NE3       29.83F FOG
THF RVR FALLS  NOT AVBL
HALSTAD        NOT AVBL
FOSSTON        RAIN      61  61 100 N7        29.79F
BAUDETTE       RAIN      60  60 100 E5        29.81F FOG
WASKISH        LGT RAIN  63  61  94 NE5       29.80F
CROOKSTON      CLOUDY    63  63 100 N8        29.81S
$$
  *****  WEATHER ACROSS CENTRAL AND WEST MINNESOTA  *****

CITY           SKY/WX    TMP DP  RH WIND       PRES   REMARKS
BEMIDJI        RAIN      62  61  97 NE3       29.77F
PARK RAPIDS    RAIN      64  62  93 N8        29.73F FOG
WADENA         LGT RAIN  63  63 100 N6        29.72
DETROIT LAKES  RAIN      64  63  94 N5        29.76F
MOORHEAD       CLOUDY    63  63 100 N13       29.77F
FERGUS FALLS   DRIZZLE   64  64 100 N8        29.73S
ELBOW LAKE     DRIZZLE   64  64 100 NW10      29.72S
MORRIS MN      LGT RAIN  66  64  94 N12G17    29.69F
STAPLES        RAIN      63  61  94 N6        29.70F
WHEATON        CLOUDY    64  63  94 NW14G20   29.75S
$$
  *****  WEATHER ELSEWHERE ACROSS MINNESOTA  *****

CITY           SKY/WX    TMP DP  RH WIND       PRES   REMARKS
DULUTH         RAIN      60  60 100 E20       29.71F
INTRNTL FALLS  LGT RAIN  60  59  96 NE3       29.82F FOG
ELY            LGT RAIN  57  55  94 NE3       29.80F
CLOQUET        RAIN      61  57  88 E8G17     29.71F
BRAINERD       RAIN      61  60  97 N14       29.67F FOG
HIBBING        LGT RAIN  58  57  97 N8        29.77F
ALEXANDRIA     LGT RAIN  65  65 100 N10       29.70F
SAINT CLOUD    LGT RAIN  65  65 100 NE12G20   29.55F
MINNEAPOLIS    CLOUDY    69  66  90 SE15      29.52F
$$

  *****  WEATHER ACROSS SOUTH DAKOTA  *****

CITY           SKY/WX    TMP DP  RH WIND       PRES   REMARKS
SIOUX FALLS    CLOUDY    67  67 100 NW14      29.76R
BROOKINGS      CLOUDY    65  63  93 NW15      29.75S
WATERTOWN      CLOUDY    63  63 100 NW14      29.77R
HURON          FAIR      60  60 100 NW12      29.82S
SISSETON         N/A     64  64 100 NW15      29.75S
ABERDEEN       FAIR      59  58  96 NW10      29.84S
MITCHELL       FAIR      63  61  93 NW12      29.83R
PIERRE         FAIR      57  53  86 W7        29.91S
MOBRIDGE       FAIR      57  56  96 CALM      29.89F
RAPID CITY     FAIR      56  51  84 SE6       29.99S
$$

  *****  SOME WEATHER IN NEARBY STATES *****

CITY           SKY/WX    TMP DP  RH WIND       PRES   REMARKS
GLASGOW MT     FAIR      62  44  51 NE6       29.82R
GREAT FALLS MT FAIR      60  29  30 W3        29.95S
CHEYENNE WY    FAIR      55  44  66 SW7       30.19S
SCOTTSBLUFF NE FAIR      55  50  83 E5        30.07S
OMAHA NE       FAIR      67  60  78 W8        29.82S
DES MOINES IA  FAIR      69  65  86 W10       29.75F
DAVENPORT IA   NOT AVBL
CHICAGO IL     NOT AVBL
EAU CLAIRE WI  HVY RAIN  68  67  96 SE9G22    29.60F FOG
LA CROSSE WI   CLOUDY    77  72  84 S10       29.64S
$$

  *****  SOME NATIONAL WEATHER *****

CITY           SKY/WX    TMP DP  RH WIND       PRES   REMARKS
LA GUARDIA NY  FAIR      73  61  65 NE8       30.02S
RALEIGH NC     FAIR      77  73  87 CALM      30.04F
ATLANTA GA     FAIR      79  74  84 W3        30.05F
NEW ORLEANS LA FAIR      79  76  90 S3        30.05S
OKLAHOMA CITY  MOCLDY    71  70  96 CALM      29.95R
ALBUQUERQUE NM FAIR      71  40  32 CALM      30.15S
SALT LAKE CITY FAIR      72  40  31 SE6       30.05S
LOS ANGELES CA FAIR      66  61  84 SW8       29.96S
BOISE ID       FAIR      67  37  33 CALM      29.99R
SEATTLE WA     CLOUDY    64  57  78 CALM      30.13R
$$

*** WEATHER ACROSS MANITOBA...SASKATCHEWAN AND ONTARIO ***
                ***ONTARIO***

CITY           SKY/WX    TMP DP  RH WIND       PRES   REMARKS
GERALDTON      MOCLDY    57  50  77 E3        29.94F
THUNDER BAY    CLOUDY    61  59  94 NE8       29.85F
SIOUX LOOKOUT  CLOUDY    61  57  88 SE5       29.88S
TORONTO        CLEAR     64  61  88 E3        30.04F
BIG TROUT LK   CLOUDY    64  61  88 SW5       29.88R
PICKLE LAKE    NOT AVBL
DRYDEN         CLOUDY    59  55  88 NE2       29.87F
KENORA         CLOUDY    61  55  82 NE5       29.86F
$$
                *** MANITOBA***

CITY           SKY/WX    TMP DP  RH WIND       PRES   REMARKS
BRANDON        CLEAR     50  46  87 N3        29.87R
DAUPHIN        CLEAR     52  48  87 W9        29.85S
ISLAND LAKE    PTCLDY    61  59  94 S6        29.83S
PILOT MOUND      N/A     52  52 100 SE5         N/A
THE PAS        CLEAR     57  52  82 S2        29.79S
THOMPSON       MOCLDY    57  57 100 VRB2      29.72S
WINNIPEG       PTCLDY    59  57  94 SW2       29.86S
LYNN LAKE      MOCLDY    57  55  94 MISG      29.67F
CHURCHILL      LGT RAIN  63  57  82 SW9       29.75F
GILLAM         CLEAR     57  57 100 S6        29.77S
$$
                ***SASKATCHEWAN***

CITY           SKY/WX    TMP DP  RH WIND       PRES   REMARKS
ESTEVAN        PTCLDY    54  50  87 E6        29.86S
KINDERSLEY     CLOUDY    64  46  52 N8G17     29.89R
LLOYDMINSTER   PTCLDY    54  52  94 W9        29.85R
PRINCE ALBERT  PTCLDY    50  45  81 CALM      29.83F
REGINA         PTCLDY    66  43  42 NE15      29.86F
YORKTON        PTCLDY    57  50  77 SW6       29.89R


USA.gov is the U.S. government's official web portal to all federal, state and local government web resources and services.